TimeMDT,TemperatureF,Dew PointF,Humidity,Sea Level PressureIn,VisibilityMPH,Wind Direction,Wind SpeedMPH,Gust SpeedMPH,PrecipitationIn,Events,Conditions,WindDirDegrees,DateUTC
12:48 AM,39.0,32.0,76,30.18,-9999.0,NNE,15.0,-,N/A,,Unknown,20,2012-10-11 06:48:00
1:48 AM,37.9,30.0,73,30.22,-9999.0,North,11.5,-,N/A,,Unknown,10,2012-10-11 07:48:00
2:48 AM,37.0,28.9,73,30.24,-9999.0,NNE,9.2,-,N/A,,Unknown,20,2012-10-11 08:48:00
3:48 AM,36.0,30.9,82,30.26,-9999.0,ENE,8.1,-,N/A,,Unknown,60,2012-10-11 09:48:00
4:48 AM,34.0,30.9,89,30.29,-9999.0,NNE,9.2,-,N/A,,Unknown,30,2012-10-11 10:48:00
5:48 AM,34.0,30.0,85,30.32,-9999.0,NE,5.8,-,N/A,,Unknown,40,2012-10-11 11:48:00
6:48 AM,34.0,28.9,82,30.33,-9999.0,NE,8.1,-,N/A,,Unknown,40,2012-10-11 12:48:00
7:48 AM,34.0,30.0,85,30.35,-9999.0,ENE,6.9,-,N/A,,Unknown,60,2012-10-11 13:48:00
8:48 AM,34.0,27.0,75,30.38,-9999.0,East,4.6,-,N/A,,Unknown,100,2012-10-11 14:48:00
9:48 AM,35.1,27.0,72,30.38,-9999.0,East,4.6,-,N/A,,Unknown,80,2012-10-11 15:48:00
10:48 AM,36.0,27.0,70,30.38,-9999.0,East,4.6,-,N/A,,Unknown,80,2012-10-11 16:48:00
11:48 AM,37.0,27.0,67,30.38,-9999.0,ESE,5.8,-,N/A,,Unknown,110,2012-10-11 17:48:00
12:48 PM,37.9,25.0,60,30.35,-9999.0,ESE,6.9,-,N/A,,Unknown,120,2012-10-11 18:48:00
1:48 PM,39.0,26.1,60,30.33,-9999.0,ESE,8.1,-,N/A,,Unknown,120,2012-10-11 19:48:00
2:48 PM,39.9,26.1,58,30.32,-9999.0,SE,8.1,-,N/A,,Unknown,140,2012-10-11 20:48:00
3:48 PM,41.0,27.0,57,30.30,-9999.0,SE,9.2,-,N/A,,Unknown,130,2012-10-11 21:48:00
4:48 PM,41.0,28.0,60,30.27,-9999.0,SE,12.7,-,N/A,,Unknown,130,2012-10-11 22:48:00
5:48 PM,41.0,28.9,62,30.26,-9999.0,SSE,10.4,-,N/A,,Unknown,150,2012-10-11 23:48:00
6:48 PM,39.9,30.9,70,30.24,-9999.0,SE,11.5,-,N/A,,Unknown,140,2012-10-12 00:48:00
7:48 PM,39.9,30.9,70,30.23,-9999.0,SSE,9.2,-,N/A,,Unknown,150,2012-10-12 01:48:00
8:48 PM,36.0,30.0,79,30.22,-9999.0,SSE,6.9,-,N/A,,Unknown,150,2012-10-12 02:48:00
9:48 PM,34.0,28.9,82,30.19,-9999.0,SSE,9.2,-,N/A,,Unknown,150,2012-10-12 03:48:00
10:48 PM,33.1,28.0,82,30.15,-9999.0,SE,8.1,-,N/A,,Unknown,140,2012-10-12 04:48:00
11:48 PM,33.1,28.9,85,30.13,-9999.0,SE,5.8,-,N/A,,Unknown,130,2012-10-12 05:48:00